Regional Weather Roundup
Issued by NWS

Home | Current Version | Previous Version | Graphics & Text | Print | Product List | Glossary On
Versions: 1 2 3 4 5 6 7 8 9 10 11 12 13 14 15 16 17 18 19 20 21 22 23 24 25 26 27 28 29 30 31 32 33 34 35 36 37 38 39 40 41 42 43 44 45 46 47 48 49 50
000
ASUS43 KOAX 180002
RWRNE

WEATHER ROUNDUP FOR NEBRASKA
NATIONAL WEATHER SERVICE OMAHA NE
700 PM CDT FRI APR 17 2015

NOTES: SATELLITE DATA IS BEING USED TO AUGMENT CLOUD COVER ABOVE
       12000 FEET.
       "FAIR" INDICATES FEW OR NO CLOUDS BELOW 12,000 FEET WITH NO
       SIGNIFICANT WEATHER AND/OR OBSTRUCTIONS TO VISIBILITY.

  * THESE STATIONS DO NOT REPORT WEATHER SUCH AS RAIN...SNOW OR FOG.

NEZ001>004-019>022-054>056-180100-
NEBRASKA PANHANDLE

CITY           SKY/WX    TMP DP  RH WIND       PRES   REMARKS
SCOTTSBLUFF    HVY RAIN  47  47 100 NE7       30.06R FOG
6HR MIN TEMP:  47; 6HR MAX TEMP:  48; 6HR PCP:  0.12;

ALLIANCE       LGT RAIN  49  47  93 NE18      30.02F
6HR MIN TEMP:  45; 6HR MAX TEMP:  49; 6HR PCP:  0.19;

CHADRON        LGT RAIN  47  44  90 NE12      30.09S FOG
6HR MIN TEMP:  45; 6HR MAX TEMP:  48; 6HR PCP:  0.18;

SIDNEY         TSTM      51  48  89 NE8       29.99R
6HR MIN TEMP:  47; 6HR MAX TEMP:  54; 6HR PCP:  0.78;

$$

NEZ057>060-069>072-079>082-180100-
SOUTHWEST NEBRASKA

CITY           SKY/WX    TMP DP  RH WIND       PRES   REMARKS
NORTH PLATTE   PTSUNNY   61  54  77 E15       29.98F
6HR MIN TEMP:  55; 6HR MAX TEMP:  63; 6HR PCP:  0.02;

IMPERIAL         N/A     61  51  70 E7        29.94S
6HR MIN TEMP:  54; 6HR MAX TEMP:  64; 6HR PCP: TRACE;

MCCOOK         MOSUNNY   69  51  52 E13       29.93F
6HR MIN TEMP:  59; 6HR MAX TEMP:  71;

$$

NEZ005>010-023>029-035>040-094-180100-
NORTH CENTRAL NEBRASKA

CITY           SKY/WX    TMP DP  RH WIND       PRES   REMARKS
VALENTINE      LGT RAIN  54  52  93 NE9       30.07F
6HR MIN TEMP:  53; 6HR MAX TEMP:  56; 6HR PCP:  0.18;

BROKEN BOW     PTSUNNY   61  56  83 NE12      30.00F
6HR MIN TEMP:  58; 6HR MAX TEMP:  61; 6HR PCP:  0.01;

ORD            PTSUNNY   62  56  80 N9        30.00F
6HR MIN TEMP:  56; 6HR MAX TEMP:  65; 6HR PCP:  0.80;

$$

NEZ041-046>049-061>064-073>077-083>087-180100-
SOUTH CENTRAL NEBRASKA

CITY           SKY/WX    TMP DP  RH WIND       PRES   REMARKS
GRAND ISLAND   PTSUNNY   65  54  67 SE8       30.00R
6HR MIN TEMP:  61; 6HR MAX TEMP:  69;

HASTINGS       MOSUNNY   67  54  63 E14       29.98S
6HR MIN TEMP:  61; 6HR MAX TEMP:  68;

KEARNEY *      PTSUNNY   63  55  77 E13       29.99S
$$

NEZ011>018-030>034-042>045-180100-
NORTHEAST NEBRASKA

CITY           SKY/WX    TMP DP  RH WIND       PRES   REMARKS
COLUMBUS *     CLOUDY    72  50  46 E8        30.01S
TEKAMAH        CLOUDY    76  50  40 E8        29.98S
6HR MIN TEMP:  76; 6HR MAX TEMP:  79;

$$

NEZ050>053-065>068-078-088>093-180100-
SOUTHEAST NEBRASKA

CITY           SKY/WX    TMP DP  RH WIND       PRES   REMARKS
LINCOLN        CLOUDY    72  52  49 SE8       29.98S
6HR MIN TEMP:  71; 6HR MAX TEMP:  74;

OMAHA EPPLEY   CLOUDY    75  52  44 E5        29.97F
6HR MIN TEMP:  75; 6HR MAX TEMP:  77;

FALLS CITY     CLOUDY    72  56  57 CALM      29.96S
6HR MIN TEMP:  72; 6HR MAX TEMP:  76;

$$

NEZ044-045-051>053-067-180100-
OMAHA AREA

CITY           SKY/WX    TMP DP  RH WIND       PRES   REMARKS
OMAHA EPPLEY   CLOUDY    75  52  44 E5        29.97F
6HR MIN TEMP:  75; 6HR MAX TEMP:  77;

OFFUTT AFB     CLOUDY    72  55  54 E6        29.97S
$$



USA.gov is the U.S. government's official web portal to all federal, state and local government web resources and services.